Simultaneous Nadir Overpasses (SNOs) Predictions

Prediction of SNOs between GOES-15 and TERRA Satellite Orbit:

Table of predicted SNOs for the next 14.0 days since TLE Epoch: 5/11/2024
Index Date Time (GOES-15) GOES-15 Lat,Lon TERRA Lat,Lon Distance(km) Time Diff (sec)
1 05/11/2024 05:35:42 -0.17, 61.59 -0.46, 62.98 157.37 80
2 05/11/2024 17:58:27 0.17, 61.57 -0.58, 58.09 395.64 80
3 05/13/2024 17:38:31 0.18, 61.61 0.33, 62.25 73.55 80
4 05/14/2024 06:01:05 -0.17, 61.65 0.72, 57.42 481.73 80
5 05/16/2024 05:43:45 -0.18, 61.70 -0.16, 61.60 11.54 80
6 05/18/2024 05:23:43 -0.19, 61.74 -1.02, 65.79 459.42 80
7 05/18/2024 17:46:28 0.18, 61.72 0.01, 60.90 92.93 80
8 05/20/2024 17:26:24 0.19, 61.77 0.89, 65.10 378.68 80
9 05/21/2024 05:48:58 -0.18, 61.81 0.12, 60.26 175.92 80
10 05/23/2024 05:28:51 -0.18, 61.87 -0.71, 64.47 295.74 80
11 05/23/2024 17:51:35 0.17, 61.85 -0.28, 59.59 256.61 80
